Temp_Advection
nan nan nan nan nan nan nan nan nan nan nan nan nan nan nan nan nan nan nan nan nan nan nan nan nan nan nan nan nan nan nan nan nan nan nan nan nan nan nan nan nan nan nan nan nan nan nan
nan -1 0 0 -0 -0 -0 -0 0 0 -0 -0 0 -0 0 0 -0 -0 -0 -0 -0 -0 -0 -0 -0 -0 -0 -1 0 0 0 -0 -0 -0 0 -0 -1 -0 -0 0 -0 -0 0 0 0 0 nan
nan -1 -0 0 -0 -0 -0 -0 -0 0 0 0 0 -0 0 -0 -0 -0 -0 -0 -0 -0 -0 -0 -0 -0 -1 -1 -0 0 -0 -0 -0 -0 -0 -0 0 -0 0 -0 -0 -0 -0 -0 0 0 nan
nan -1 0 0 -0 -0 -0 -0 -0 0 0 0 -0 -0 -0 -0 -0 -0 -0 -0 -0 -0 -0 -0 -0 -0 -1 -0 -0 -0 -0 -0 -0 -0 -0 -0 -0 -0 -0 -0 -1 -0 -0 0 -0 0 nan
nan -0 0 0 -0 -0 -0 -0 -0 0 0 0 -0 -0 -0 -0 -0 -0 -0 -0 -0 -0 -0 -0 -0 -0 -1 -0 -0 -0 -0 -0 -0 -0 0 -0 -0 -0 -1 -1 -0 -0 0 0 -0 0 nan
nan -0 0 0 -0 -0 -0 -0 -0 0 0 0 -0 -0 -0 -0 -0 -0 -0 -0 -0 -0 -0 -0 -0 -0 -1 -0 -0 -0 -0 0 -0 0 0 -0 -1 -1 -0 0 -0 -0 -0 0 0 -0 nan
nan -0 0 -0 -0 -0 -0 -0 0 0 0 -0 -0 -0 -0 -0 -0 -0 -0 -0 -0 -0 -0 -1 -0 -0 -0 -0 0 -0 -0 -0 -0 -1 -0 -1 -0 0 0 -0 -0 -0 -0 0 -0 -0 nan
nan -0 0 -0 -0 -0 -0 -0 -0 -0 -0 -0 -0 -0 -0 -0 -0 -0 -0 -0 0 0 -0 -1 0 -0 -0 -0 -0 -0 0 -0 -0 -0 -0 -0 0 0 -0 0 0 -0 -0 0 -0 -1 nan
nan 0 0 -0 -0 -0 -0 -0 -0 -0 -0 -0 -0 -0 -0 -0 0 -0 -0 0 0 0 -0 -0 -0 -0 -0 -0 0 0 0 -0 -0 -0 -0 0 -0 -0 -0 -0 -0 -0 0 0 -0 -0 nan
nan 0 -0 -0 -0 -0 -0 -0 -0 -0 -0 -0 -0 -0 -0 -0 -0 -0 -0 0 0 0 -0 -1 -0 -0 0 -0 -0 0 0 -0 -0 -0 0 0 -0 0 -0 -0 0 0 0 -0 -1 -0 nan
nan 0 -0 -0 -0 -0 -0 -0 -0 -0 -0 -0 -0 -0 -0 -0 0 -0 -0 0 0 -0 0 -1 -0 0 0 -0 -0 0 0 -0 -0 -0 -0 -0 0 -0 0 0 -0 -0 -0 0 -0 -0 nan
nan 0 -0 0 -0 -0 -0 -0 -0 -0 -0 -0 0 -0 -0 -0 0 0 -0 0 -0 -1 -0 -0 0 0 -0 -0 0 0 -0 -0 -1 -0 -0 0 0 -0 -0 -0 0 -0 -0 -1 -0 -0 nan
nan 0 -0 -0 -0 -0 -0 -0 -0 -0 -0 -0 0 0 0 -0 0 0 0 -0 -1 0 -0 -0 0 0 0 -0 -0 -0 -0 -1 0 -0 -0 -0 -0 -0 0 -0 -0 -0 -0 -0 0 -0 nan
nan -0 -0 -0 -0 -0 -0 -0 -0 -0 -0 -0 0 0 0 0 0 0 -0 -1 -0 -0 -0 0 -0 0 0 -0 -0 -0 -0 -0 0 -0 -0 0 -0 0 -0 0 0 -0 -0 -0 0 0 nan
nan -0 -0 -0 -0 -0 -0 -0 -0 -0 -0 -0 -0 0 0 0 0 0 -0 -0 -0 -0 -0 -0 -0 0 0 -0 -0 -0 -0 0 0 -0 -0 -0 -0 -0 -0 -0 -0 -0 -0 -0 -1 0 nan
nan -0 -0 -0 -0 -0 -0 -0 -0 0 -0 0 0 0 0 0 0 -0 -1 -0 -0 -1 -0 -0 -0 0 0 0 -0 -0 0 -0 -0 -0 0 -0 0 -0 -0 -0 -0 -0 -0 -0 0 0 nan
nan 0 -0 -0 -0 -0 -0 -0 0 0 0 0 0 1 0 0 0 -0 -0 -1 -1 -0 -0 -0 -0 -0 0 0 -0 -0 0 -0 -0 -0 -0 -0 0 -0 -0 -0 0 -0 -0 -1 -0 -0 nan
nan 0 -0 -0 -0 -0 0 0 0 0 0 0 -0 0 1 0 -0 -0 -0 -1 -0 -0 -0 -0 0 -0 -0 -0 -0 -0 0 -0 -0 -0 -0 -0 -0 0 -0 -0 -0 -0 -0 -1 0 0 nan
nan -0 -0 -0 -0 -0 0 0 0 0 0 -0 -0 -0 1 0 -0 -0 -1 -0 -0 -0 -0 0 -0 -0 -0 -0 -0 0 0 0 -0 -0 0 -0 -0 0 -1 -0 -0 0 -0 -1 -1 0 nan
nan -0 0 -0 -0 0 -0 0 0 0 0 -0 -0 -0 0 1 -0 -1 -0 -0 0 -0 0 -0 -0 -0 -0 -0 -0 0 0 0 -0 -0 -0 -0 -0 -0 0 0 0 0 -0 -0 -1 -0 nan
nan -0 -0 -0 0 0 -0 0 0 0 1 0 0 -0 -0 0 -0 0 0 -0 0 0 0 -0 -0 -0 -0 -0 -0 -0 0 0 -0 -0 -0 -0 0 -0 -0 -0 -0 -0 0 0 0 -0 nan
nan -0 -0 0 -0 0 0 0 0 0 0 0 -0 -0 -0 -0 -0 -0 0 -0 0 0 0 -0 -0 -0 -0 0 0 0 0 0 0 -0 -0 -0 0 -0 0 -0 -1 -0 0 0 -0 -0 nan
nan 0 0 -0 -0 0 0 0 -0 0 -0 -0 -0 -0 -1 -0 1 0 -0 -0 0 0 -0 -0 -0 -0 -0 0 0 -0 -0 -0 -0 -0 -0 -0 0 0 0 -0 -0 -0 -0 -0 -0 0 nan
nan 0 0 -0 -0 0 0 -0 -0 -0 -0 -0 -0 -0 -1 0 0 -0 -0 0 0 0 0 0 -0 -0 -0 1 1 -1 -3 -2 -2 -1 -0 -1 -0 0 0 0 0 -0 0 -0 0 0 nan
nan 0 0 0 0 0 0 0 0 -0 -0 -0 0 -0 -0 -0 -0 0 -0 0 1 -0 -0 0 0 -0 -0 -1 -1 -1 -0 -0 -0 0 -0 -0 -0 0 0 -0 -1 -0 -0 -0 0 0 nan
nan 0 0 0 0 0 0 0 0 -0 -0 0 -0 -0 -0 -4 -0 0 -0 -1 -0 0 -0 0 1 1 -0 -2 0 0 -0 -0 0 -0 -1 -1 -0 0 0 0 -0 -0 -0 -0 -0 0 nan
nan 0 0 0 0 0 0 0 0 -0 -0 -0 -0 0 -0 -1 -0 -0 -0 -0 -1 -1 0 0 0 0 -1 -1 0 0 -0 0 0 0 0 -0 0 0 -0 -0 -1 -1 -0 0 -0 -0 nan
nan 0 0 0 0 0 0 1 1 0 0 -0 -0 0 -0 -1 -0 0 -0 -1 -1 -2 -1 0 -0 -0 -1 -0 -0 0 0 0 0 -0 -0 -1 -1 -0 -0 0 -1 -1 -0 -0 -0 -1 nan
nan nan nan nan nan nan nan nan nan nan nan nan nan nan nan nan nan nan nan nan nan nan nan nan nan nan nan nan nan nan nan nan nan nan nan nan nan nan nan nan nan nan nan nan nan nan nan
Wind_Speed
24 23 21 19 20 18 18 17 18 18 20 20 20 19 18 15 13 13 13 13 14 12 9 5 5 5 7 6 8 1 4 5 8 10 13 14 14 11 5 6 3 3 3 1 13 13 13
25 22 20 19 18 17 17 16 16 17 18 18 18 16 15 12 12 11 11 12 11 9 6 6 5 7 6 5 1 3 6 8 8 11 14 17 12 14 5 9 8 9 3 7 9 13 10
24 23 20 19 18 18 16 15 14 15 16 16 15 14 12 11 11 10 10 9 8 7 7 5 5 7 9 12 3 3 5 6 10 9 9 10 13 16 6 4 11 15 5 4 2 3 3
26 24 21 19 19 17 16 14 13 13 13 14 13 12 10 9 9 8 8 7 7 7 5 4 5 5 8 5 9 4 3 7 5 4 2 3 3 7 2 15 7 5 5 3 5 2 2
27 25 22 20 18 16 15 13 11 11 12 13 11 9 8 7 8 8 7 8 7 5 4 4 4 4 8 6 7 3 2 3 4 2 0 1 3 5 6 5 5 6 3 2 4 8 2
29 26 23 21 18 16 14 13 11 10 10 11 9 7 6 8 8 9 11 9 6 4 4 3 2 2 9 3 6 6 2 2 0 3 7 6 4 4 4 5 3 3 2 3 6 5 4
32 27 24 22 19 17 14 12 11 9 8 8 7 5 7 10 12 13 11 7 2 2 9 7 3 5 9 4 6 9 2 3 2 7 5 5 6 2 4 1 4 2 3 5 4 1 8
33 29 26 23 20 17 15 13 12 8 7 6 6 7 10 14 17 13 11 3 4 3 5 13 15 16 12 6 5 10 1 3 5 2 1 7 2 1 6 5 3 5 4 2 4 8 11
33 30 28 24 21 18 15 15 12 9 8 7 9 12 15 15 15 13 10 5 6 4 1 4 4 6 2 4 3 5 2 1 3 2 3 5 2 3 5 6 5 4 2 3 6 8 6
34 32 30 26 22 20 17 17 13 11 10 10 12 14 15 13 11 7 3 2 3 5 4 5 1 3 2 7 3 4 3 2 4 5 6 6 6 5 5 5 3 3 2 3 9 5 4
36 33 30 27 24 21 20 18 15 13 12 12 14 16 15 13 7 6 1 4 3 1 4 4 2 2 3 3 5 3 4 1 4 4 5 4 2 5 5 1 2 3 2 2 2 4 4
38 35 32 28 25 23 22 20 18 16 14 15 16 17 16 7 7 4 2 2 0 6 2 1 3 1 3 2 2 4 4 8 6 6 7 3 1 3 1 1 0 2 5 6 4 3 3
39 36 33 30 26 24 23 21 20 18 17 16 16 16 14 8 6 3 4 1 5 4 1 4 4 3 2 2 5 5 4 6 4 5 3 5 4 5 3 2 2 5 5 3 3 4 4
40 37 34 30 27 26 23 23 22 21 19 17 16 17 13 9 6 3 2 5 1 3 5 2 4 3 3 4 4 4 3 3 5 4 3 3 5 4 5 1 2 3 4 5 5 3 2
42 38 34 30 28 26 24 24 24 23 21 19 20 17 13 8 6 2 1 3 6 6 4 6 4 4 2 3 5 5 3 2 3 3 5 4 1 3 1 2 2 1 3 3 6 3 3
43 39 34 31 29 26 24 25 26 25 24 22 21 17 13 9 5 3 4 5 4 4 1 4 5 3 5 4 4 4 2 3 2 5 2 5 4 2 4 3 4 4 4 3 4 3 1
43 38 34 31 28 26 24 26 27 27 26 24 21 10 13 11 6 2 3 5 4 5 1 3 5 4 4 6 4 3 1 3 3 4 6 2 3 4 2 3 1 4 2 6 5 3 4
42 37 34 30 28 26 24 26 29 29 29 27 20 2 16 14 4 1 3 4 5 2 6 4 4 3 5 4 4 3 4 0 4 1 2 1 5 3 1 5 3 1 2 4 4 3 1
41 37 33 29 27 25 23 27 30 31 32 29 15 5 15 17 4 2 4 4 1 1 3 2 3 2 2 5 6 2 3 0 3 3 3 2 2 3 6 6 5 2 3 5 6 3 4
40 36 31 29 26 23 23 27 30 33 34 28 13 2 4 8 4 7 3 4 1 4 3 3 3 5 5 5 6 4 3 1 3 5 5 3 3 5 6 4 3 3 2 3 4 3 3
39 34 30 28 24 22 23 27 31 36 37 23 9 5 9 3 3 4 5 2 3 2 1 3 4 3 5 4 3 4 2 2 4 3 4 4 3 1 3 4 2 1 3 5 6 4 5
36 32 30 26 23 21 23 27 32 38 37 20 8 5 6 7 20 6 3 5 7 2 3 1 6 2 2 6 6 8 6 2 3 6 4 4 3 1 1 6 6 3 5 6 5 4 6
35 32 29 25 22 20 21 25 31 37 36 18 8 5 8 2 5 5 5 6 8 6 6 1 11 5 5 2 8 12 8 10 7 5 3 4 5 3 3 4 5 6 7 6 4 3 6
33 30 27 24 22 20 20 23 29 35 37 21 9 6 6 2 3 6 6 3 6 5 7 4 8 6 14 31 28 24 26 23 21 14 5 5 4 3 2 3 2 6 4 6 4 1 3
32 28 25 24 21 20 19 23 27 33 32 20 10 7 7 2 3 4 8 7 14 15 6 4 2 11 24 6 5 5 5 6 5 6 6 4 5 3 4 3 5 6 5 6 6 7 5
31 26 24 23 21 19 19 23 26 27 27 17 14 7 4 15 4 12 7 10 5 4 5 5 18 28 4 6 4 4 4 4 2 1 5 5 6 4 2 4 6 6 3 6 5 5 18
29 26 23 22 19 19 19 21 24 29 28 21 12 8 6 7 6 14 5 9 11 7 4 4 5 3 3 3 3 3 3 3 4 5 3 2 3 4 3 3 8 7 5 4 5 7 23
28 24 23 21 19 18 19 19 21 28 21 18 13 11 8 6 8 10 11 15 12 10 5 10 5 1 4 4 3 4 3 5 2 4 5 7 6 4 3 1 8 11 5 7 6 7 20
26 23 21 19 18 17 18 18 19 21 20 17 17 12 9 7 7 12 11 13 14 13 15 17 6 6 7 4 1 3 2 2 2 3 2 3 7 5 9 6 4 18 8 21 9 9 18
Wind_Direction
248 241 245 252 258 262 268 277 286 291 292 293 292 289 284 277 270 260 249 242 236 234 238 227 211 247 260 258 260 9 175 183 206 219 228 218 216 202 194 183 232 220 220 152 121 129 151
253 242 244 252 255 259 267 275 283 290 291 292 290 287 279 271 258 245 237 231 230 232 213 196 206 245 249 256 81 14 263 241 243 243 238 224 227 226 245 209 155 172 214 126 109 120 152
250 245 242 248 250 257 263 271 282 287 289 290 289 285 273 258 244 227 224 220 219 206 184 196 233 248 252 236 311 311 297 275 297 276 250 259 252 226 206 151 166 137 76 30 53 120 114
247 242 240 243 246 252 260 270 275 277 283 284 288 281 265 245 227 208 209 197 185 175 182 220 242 239 251 249 280 223 296 298 274 235 227 296 227 215 182 125 57 77 53 99 290 115 66
243 238 236 236 239 246 253 262 262 267 276 281 282 269 249 223 200 187 174 157 163 174 203 232 217 223 263 286 249 213 247 303 173 158 134 178 117 73 91 78 40 11 148 155 311 199 74
240 233 231 229 233 236 245 250 249 258 269 274 268 248 218 201 169 157 148 148 163 193 211 161 205 261 259 230 207 229 242 62 252 3 89 56 50 82 53 75 188 211 170 187 204 203 73
236 227 224 223 227 230 234 233 237 246 255 259 248 211 183 169 150 147 145 145 170 235 217 206 234 235 309 263 192 224 291 9 16 42 56 23 61 104 51 140 169 176 161 224 249 78 74
232 221 217 218 219 224 226 222 225 223 228 228 209 166 162 153 148 150 159 140 62 353 304 252 260 267 280 239 220 214 218 40 37 72 26 23 77 286 85 54 76 72 117 20 88 66 88
228 218 213 211 213 216 218 216 212 203 203 198 176 156 160 157 152 166 170 43 333 329 273 286 259 251 161 194 139 135 127 76 93 51 54 125 310 40 87 44 74 33 56 70 98 70 67
222 215 209 207 209 212 210 207 201 192 190 186 169 157 154 156 153 172 198 326 333 349 65 288 296 229 85 127 72 99 68 96 51 128 113 72 337 100 71 82 94 48 335 40 108 96 172
217 211 206 202 205 208 205 200 193 188 181 176 165 157 158 154 144 164 86 320 328 350 75 257 253 163 115 86 130 59 60 122 131 157 89 239 71 70 64 81 112 177 74 98 71 112 90
212 207 202 200 202 205 202 194 189 184 176 170 162 165 165 151 138 150 298 1 69 45 246 235 172 156 66 49 119 107 74 74 88 73 49 88 119 77 221 307 250 128 95 41 51 82 56
209 203 202 198 199 203 199 191 189 180 173 168 160 164 166 154 133 134 34 53 41 123 188 179 171 141 130 62 38 63 50 28 93 84 20 8 354 319 37 94 6 73 71 13 9 12 202
205 200 198 196 196 201 197 190 188 178 173 165 161 159 160 150 140 153 -0 52 203 216 209 170 118 97 120 130 14 32 80 56 27 84 114 120 351 2 335 94 200 54 138 150 185 178 238
199 196 195 194 197 196 196 189 187 179 175 162 160 159 153 136 136 148 125 70 214 216 192 131 62 103 111 62 116 80 60 92 42 20 127 131 316 316 293 352 114 154 47 151 107 1 72
194 192 191 193 195 195 194 188 187 180 178 167 164 157 157 149 145 150 83 228 241 221 188 106 138 162 163 146 90 82 79 331 345 46 176 183 104 9 309 55 21 114 145 52 9 123 231
189 188 189 191 192 194 192 187 186 182 178 171 166 162 176 168 175 138 160 231 271 280 188 111 161 163 178 152 106 90 130 356 350 336 56 98 96 279 20 24 299 3 38 63 107 107 156
184 185 187 187 191 191 189 187 185 182 177 172 169 115 175 177 107 44 182 209 314 292 44 57 95 93 147 107 80 95 134 84 340 295 75 22 121 101 211 294 296 189 129 110 107 219 51
181 181 182 186 187 188 187 185 183 181 176 169 166 124 170 176 146 279 274 280 266 349 34 55 73 90 112 121 98 101 109 143 25 74 139 170 19 63 353 350 348 101 63 91 102 91 194
176 177 179 183 184 184 184 183 181 180 175 171 164 103 138 179 166 154 173 269 174 44 60 87 109 83 74 58 30 137 130 26 62 96 91 100 88 149 182 198 186 143 125 125 116 118 186
173 172 177 179 179 179 178 179 179 179 175 174 178 195 161 204 232 165 151 294 146 122 83 72 33 64 128 107 74 109 131 127 56 75 58 79 117 69 61 29 15 278 170 186 193 185 167
169 169 174 174 175 173 173 179 180 179 178 180 167 156 156 168 174 150 131 209 176 173 132 86 110 42 110 147 177 191 143 159 180 36 67 13 154 340 113 4 3 284 245 245 234 209 258
165 168 170 170 169 166 171 177 181 181 179 183 193 172 169 130 118 114 205 203 202 138 33 86 145 101 43 336 111 103 102 103 116 124 104 70 125 81 253 341 333 335 218 195 193 192 151
164 166 165 164 162 163 168 173 177 182 183 190 197 184 152 226 137 180 177 162 167 178 141 120 120 95 131 110 97 85 75 70 66 49 93 122 93 77 182 16 22 244 299 237 188 251 187
162 161 159 159 158 159 161 166 172 180 182 197 212 207 183 125 169 82 123 119 100 88 72 76 69 136 140 107 63 47 352 21 357 34 26 90 116 98 137 190 295 304 185 152 175 251 195
159 157 156 155 156 154 154 159 168 173 177 199 231 198 154 124 244 150 128 153 137 110 26 75 118 150 147 77 71 130 197 204 270 53 45 54 70 108 120 144 211 243 257 160 113 294 187
157 155 153 152 154 151 151 154 160 164 177 201 199 161 140 104 136 165 152 161 137 104 109 138 157 128 98 72 84 147 228 181 182 178 200 41 13 153 150 230 286 238 192 125 111 235 179
155 154 152 153 156 150 147 148 156 173 190 191 175 162 153 112 135 173 155 154 153 146 135 156 84 346 52 70 121 194 169 221 127 187 182 171 152 196 108 75 277 187 143 167 207 178 188
155 156 155 155 154 152 145 145 150 160 169 179 172 167 155 127 124 137 153 180 181 179 149 163 166 160 157 92 138 125 165 174 154 232 110 241 188 185 186 214 263 190 226 212 213 222 207
Height
1505 1507 1508 1510 1511 1511 1512 1510 1510 1508 1507 1504 1502 1501 1500 1499 1498 1498 1498 1499 1500 1501 1503 1504 1505 1507 1506 1506 1501 1500 1500 1501 1502 1502 1503 1504 1506 1508 1509 1506 1507 1509 1505 1506 1504 1506 1509
1500 1502 1504 1506 1507 1507 1508 1507 1506 1505 1503 1501 1499 1497 1496 1496 1495 1496 1496 1498 1500 1501 1503 1504 1504 1505 1506 1505 1499 1500 1499 1500 1501 1501 1500 1501 1500 1502 1503 1503 1505 1505 1507 1506 1507 1508 1510
1496 1498 1498 1501 1503 1504 1504 1504 1502 1501 1500 1499 1496 1495 1493 1493 1494 1494 1496 1497 1499 1501 1502 1503 1503 1504 1504 1499 1498 1498 1499 1498 1498 1498 1498 1496 1496 1501 1500 1501 1502 1506 1512 1510 1511 1511 1513
1491 1493 1494 1496 1499 1500 1501 1501 1499 1498 1497 1497 1494 1493 1492 1492 1493 1493 1495 1497 1500 1502 1502 1502 1503 1503 1499 1498 1497 1497 1497 1498 1497 1497 1497 1497 1496 1497 1497 1499 1504 1510 1517 1526 1514 1513 1515
1485 1488 1490 1492 1494 1496 1497 1497 1496 1496 1495 1494 1492 1491 1490 1491 1492 1493 1496 1498 1501 1502 1502 1502 1502 1502 1499 1497 1497 1496 1497 1497 1496 1497 1497 1496 1496 1496 1499 1507 1520 1521 1529 1523 1518 1513 1515
1480 1484 1486 1487 1490 1491 1493 1494 1494 1493 1493 1492 1491 1489 1489 1491 1492 1495 1496 1499 1501 1502 1502 1502 1502 1505 1497 1496 1496 1495 1496 1496 1495 1495 1494 1495 1495 1501 1507 1514 1534 1523 1522 1524 1523 1515 1517
1475 1478 1481 1483 1486 1489 1489 1490 1491 1491 1491 1490 1489 1488 1490 1491 1493 1495 1498 1501 1505 1504 1500 1496 1498 1496 1495 1495 1495 1495 1495 1495 1495 1493 1500 1499 1507 1514 1510 1508 1508 1510 1517 1522 1520 1513 1525
1470 1472 1475 1479 1482 1485 1487 1487 1488 1488 1489 1489 1488 1488 1490 1491 1493 1496 1499 1501 1501 1502 1499 1495 1495 1495 1494 1495 1496 1495 1497 1498 1496 1502 1499 1506 1513 1507 1506 1507 1508 1513 1517 1521 1517 1517 1524
1464 1467 1471 1473 1478 1480 1483 1485 1486 1486 1487 1488 1488 1488 1491 1493 1494 1497 1499 1501 1500 1499 1499 1494 1493 1493 1493 1494 1494 1495 1497 1497 1498 1501 1503 1512 1509 1505 1508 1514 1515 1521 1521 1517 1521 1527 1529
1457 1463 1465 1469 1473 1477 1480 1482 1484 1484 1485 1487 1488 1489 1492 1494 1498 1498 1499 1499 1499 1499 1509 1499 1493 1493 1493 1492 1495 1496 1497 1499 1500 1508 1507 1512 1509 1510 1513 1518 1518 1523 1516 1515 1523 1531 1546
1451 1458 1461 1463 1469 1473 1476 1479 1481 1483 1484 1486 1487 1490 1493 1495 1495 1498 1500 1499 1499 1500 1540 1498 1493 1493 1492 1494 1496 1497 1497 1498 1502 1505 1509 1519 1515 1516 1518 1517 1516 1521 1516 1519 1521 1535 1538
1445 1452 1455 1459 1465 1470 1472 1475 1478 1481 1482 1485 1487 1490 1492 1494 1496 1498 1498 1498 1500 1520 1529 1497 1492 1493 1494 1494 1496 1497 1498 1499 1502 1507 1509 1514 1513 1514 1515 1514 1514 1516 1522 1529 1534 1541 1562
1439 1445 1451 1454 1460 1466 1469 1472 1475 1478 1481 1484 1486 1490 1493 1494 1496 1497 1498 1498 1521 1534 1497 1500 1497 1494 1496 1498 1499 1500 1506 1509 1514 1524 1527 1520 1519 1516 1515 1516 1516 1519 1531 1559 1560 1570 1566
1433 1439 1445 1451 1456 1462 1465 1468 1473 1476 1479 1483 1486 1490 1492 1494 1495 1497 1498 1503 1518 1502 1499 1490 1493 1496 1500 1499 1505 1506 1510 1518 1513 1515 1528 1534 1544 1521 1517 1518 1521 1523 1529 1554 1557 1575 1555
1427 1435 1441 1447 1453 1457 1461 1465 1470 1473 1478 1481 1486 1489 1491 1493 1495 1497 1500 1525 1513 1502 1490 1492 1495 1501 1502 1501 1504 1509 1515 1518 1516 1515 1525 1532 1531 1519 1517 1516 1519 1522 1538 1531 1556 1569 1565
1422 1430 1436 1443 1449 1453 1457 1461 1466 1470 1476 1481 1484 1488 1491 1492 1495 1497 1503 1513 1499 1490 1487 1489 1501 1500 1506 1504 1508 1513 1515 1516 1517 1516 1515 1521 1533 1522 1518 1518 1519 1520 1525 1543 1556 1565 1573
1418 1425 1433 1440 1444 1450 1453 1457 1462 1468 1474 1479 1484 1487 1489 1491 1495 1497 1512 1507 1494 1488 1486 1489 1496 1500 1500 1505 1508 1515 1520 1519 1517 1516 1515 1518 1527 1532 1523 1528 1530 1529 1532 1541 1549 1564 1573
1413 1422 1430 1436 1442 1446 1449 1453 1459 1465 1471 1478 1481 1486 1487 1490 1496 1501 1503 1496 1490 1488 1486 1487 1490 1492 1499 1503 1512 1515 1518 1518 1517 1516 1520 1521 1533 1551 1532 1525 1524 1523 1529 1538 1564 1556 1577
1410 1419 1426 1433 1438 1442 1446 1450 1455 1462 1468 1474 1479 1483 1485 1488 1504 1509 1496 1493 1490 1488 1489 1489 1492 1493 1495 1505 1517 1516 1518 1518 1516 1517 1520 1521 1538 1557 1546 1535 1527 1526 1529 1537 1547 1559 1560
1408 1416 1423 1430 1435 1439 1442 1446 1453 1460 1467 1474 1478 1485 1485 1487 1489 1493 1495 1494 1491 1489 1490 1490 1492 1493 1497 1507 1510 1517 1518 1518 1517 1518 1519 1519 1533 1539 1551 1538 1535 1532 1531 1536 1541 1564 1557
1407 1413 1422 1428 1432 1436 1439 1444 1450 1457 1464 1471 1473 1475 1475 1491 1491 1490 1492 1493 1492 1493 1490 1491 1493 1495 1500 1510 1513 1517 1517 1518 1518 1519 1520 1523 1536 1536 1537 1538 1533 1531 1532 1536 1539 1540 1548
1406 1413 1421 1426 1431 1434 1437 1443 1448 1455 1462 1468 1469 1471 1473 1477 1482 1489 1491 1491 1491 1491 1491 1494 1497 1499 1499 1508 1507 1516 1515 1517 1518 1520 1525 1529 1544 1544 1539 1541 1541 1536 1533 1536 1536 1534 1536
1404 1412 1420 1425 1429 1431 1436 1441 1446 1453 1460 1465 1467 1468 1469 1479 1482 1489 1491 1488 1488 1489 1494 1493 1494 1501 1506 1506 1505 1507 1511 1513 1515 1520 1530 1537 1549 1552 1553 1553 1548 1550 1532 1528 1525 1526 1530
1405 1414 1419 1424 1427 1431 1436 1440 1445 1452 1458 1464 1465 1467 1468 1483 1481 1484 1483 1484 1487 1489 1493 1496 1496 1499 1510 1507 1509 1512 1514 1518 1519 1524 1525 1540 1549 1561 1563 1562 1564 1526 1522 1521 1522 1524 1526
1407 1414 1418 1422 1426 1432 1436 1439 1444 1451 1457 1463 1464 1465 1465 1478 1477 1479 1481 1484 1488 1490 1495 1497 1498 1500 1504 1507 1519 1527 1536 1530 1533 1532 1530 1530 1545 1560 1567 1567 1544 1522 1520 1522 1522 1524 1523
1408 1414 1419 1423 1428 1433 1437 1440 1445 1451 1457 1461 1463 1463 1462 1466 1477 1475 1481 1483 1489 1494 1499 1502 1502 1505 1507 1512 1527 1542 1542 1532 1537 1533 1535 1535 1538 1550 1567 1568 1560 1523 1514 1513 1516 1531 1516
1409 1414 1419 1424 1430 1434 1437 1440 1445 1450 1457 1462 1461 1461 1462 1465 1473 1475 1478 1482 1485 1491 1499 1503 1504 1506 1507 1523 1543 1543 1538 1531 1538 1542 1547 1550 1556 1561 1575 1571 1541 1515 1512 1514 1531 1525 1511
1410 1416 1421 1427 1432 1435 1437 1440 1444 1448 1454 1458 1459 1461 1463 1466 1472 1474 1476 1478 1483 1486 1496 1500 1506 1507 1512 1526 1536 1540 1542 1533 1534 1529 1533 1537 1547 1558 1559 1565 1538 1506 1513 1519 1508 1504 1506
1412 1418 1424 1429 1433 1436 1439 1442 1447 1451 1454 1457 1459 1461 1463 1466 1472 1474 1476 1478 1481 1483 1486 1494 1497 1499 1502 1517 1526 1529 1533 1533 1536 1534 1522 1531 1522 1529 1528 1521 1504 1503 1500 1501 1501 1501 1503